User: anonymous   Login
Location: Unspecified
(0.0000°N, 0.0000°E)
Time: 05:32:14
(UTC+00:00)
Language:

GONETS M 05 - Orbit

View from above orbital plane
View from above orbital plane
View from above satellite
View from above satellite

Ground track
Ground track

The orbit data is extracted from the following two-line orbital elements,

1 39249U 13048A   17177.67674023 +.00000024 +00000-0 +10000-3 0  9991
2 39249 082.4816 226.5619 0016671 156.4828 203.7019 12.42892380171880
Epoch (UTC): 26 June 2017 16:14:30
Eccentricity: 0.0016671
inclination: 82.4816°
perigee height: 1481 km
apogee height: 1507 km
right ascension of ascending node: 226.5619°
argument of perigee: 156.4828°
revolutions per day: 12.42892380
mean anomaly at epoch: 203.7019°
orbit number at epoch: 17188

The dashed part of the orbit path shows where the satellite is in the earth's shadow,  

DLR